Retour au catalogue

DMSP 5D-2 F11 DEB

ActifSSO
NORAD 28308·DEBRIS·🇺🇸 United States

Lancé Nov 28, 1991 depuis Vandenberg Space Force Base

Loading…

Prochains Passages (prochaines 24 heures)

TLE

FraisSource: Space-Track

Époque: Sep 14, 2026, 00:22 UTC

1 28308U 91082V   26257.01538950  .00000733  00000-0  29862-3 0  9997
2 28308  98.5598 285.5108 0015067 121.4872 268.5429 14.30329387161880

Suivez DMSP 5D-2 F11 DEB en temps réel avec AllMySat

Download on the App Store